This is the latest recevied weather packets stored in our database for station/object CE7LGA-10. If no packets are shown the sender has not sent any weather packets the latest 10 day(s).
| Time | Temp. | Humidity | Pressure | Rain* | Wind** | Luminosity | Snow |
|---|---|---|---|---|---|---|---|
| 1787967503 | 16.11° C | 66% | 996.6 hPa | - | - | - | - |
| 1787966603 | 16.11° C | 66% | 996.7 hPa | - | - | - | - |
| 1787965703 | 16.67° C | 68% | 996.7 hPa | - | - | - | - |
| 1787964803 | 16.67° C | 69% | 996.9 hPa | - | - | - | - |
| 1787963903 | 16.67° C | 68% | 997.1 hPa | - | - | - | - |
| 1787963003 | 16.11° C | 69% | 997.1 hPa | - | - | - | - |
| 1787962103 | 16.11° C | 70% | 997.2 hPa | - | - | - | - |
| 1787961203 | 17.78° C | 67% | 997.2 hPa | - | - | - | - |
| 1787960302 | 15.56° C | 70% | 997.3 hPa | - | - | - | - |
| 1787959402 | 15.56° C | 69% | 997.3 hPa | - | - | - | - |
| 1787958502 | 15.56° C | 68% | 997.1 hPa | - | - | - | - |
| 1787957602 | 15.56° C | 68% | 997.2 hPa | - | - | - | - |
| 1787956704 | 15.56° C | 69% | 997 hPa | - | - | - | - |
| 1787955804 | 15.56° C | 67% | 997 hPa | - | - | - | - |
| 1787954904 | 15.56° C | 67% | 997.1 hPa | - | - | - | - |
| 1787954004 | 15.56° C | 68% | 997.1 hPa | - | - | - | - |
| 1787953104 | 15.56° C | 69% | 997.2 hPa | - | - | - | - |
| 1787952203 | 15.56° C | 71% | 997 hPa | - | - | - | - |
| 1787951303 | 15° C | 67% | 997.3 hPa | - | - | - | - |
| 1787950403 | 15° C | 68% | 997.3 hPa | - | - | - | - |
| 1787949503 | 15° C | 68% | 997.2 hPa | - | - | - | - |
| 1787948603 | 15° C | 68% | 997.4 hPa | - | - | - | - |
| 1787947703 | 15° C | 68% | 997.4 hPa | - | - | - | - |
| 1787946803 | 15° C | 68% | 997.5 hPa | - | - | - | - |
| 1787945903 | 15° C | 68% | 997.5 hPa | - | - | - | - |
* Rain since midnight (hover to see other rain measurements)
** Current wind speed in m/s (hover to see current wind gust speed)